Regional Weather Roundup
Issued by NWS

Home | Current Version | Previous Version | Text Only | Print | Product List | Glossary On
Versions: 1 2 3 4 5 6 7 8 9 10 11 12 13 14 15 16 17 18 19 20 21 22 23 24 25 26 27 28 29 30 31 32 33 34 35 36 37 38 39 40 41 42 43 44 45 46 47 48 49 50
000
ASUS43 KOAX 270010
RWRNE

WEATHER ROUNDUP FOR NEBRASKA
NATIONAL WEATHER SERVICE OMAHA NE
700 PM CDT WED APR 26 2017

NOTES: SATELLITE DATA IS BEING USED TO AUGMENT CLOUD COVER ABOVE
       12000 FEET.
       "FAIR" INDICATES FEW OR NO CLOUDS BELOW 12,000 FEET WITH NO
       SIGNIFICANT WEATHER AND/OR OBSTRUCTIONS TO VISIBILITY.

  * THESE STATIONS DO NOT REPORT WEATHER SUCH AS RAIN...SNOW OR FOG.

NEZ001>004-019>022-054>056-270100-
NEBRASKA PANHANDLE

CITY           SKY/WX    TMP DP  RH WIND       PRES   REMARKS
SCOTTSBLUFF    CLOUDY    52  38  58 NE18      29.68R
6HR MIN TEMP:  49; 6HR MAX TEMP:  61; 6HR PCP:  0.01;

ALLIANCE       SUNNY     48  31  51 NE12      29.68R
6HR MIN TEMP:  39; 6HR MAX TEMP:  53;

CHADRON        SUNNY     45  32  60 NE12      29.72R
6HR MIN TEMP:  35; 6HR MAX TEMP:  48;

KIMBALL        LGT RAIN  45  39  78 N12       29.70R
SIDNEY         MOSUNNY   52  36  54 SW12      29.67S
6HR MIN TEMP:  49; 6HR MAX TEMP:  58;

$$

NEZ057>060-069>072-079>082-270100-
SOUTHWEST NEBRASKA

CITY           SKY/WX    TMP DP  RH WIND       PRES   REMARKS
NORTH PLATTE   SUNNY     51  30  44 N10       29.71S
6HR MIN TEMP:  44; 6HR MAX TEMP:  53;

IMPERIAL       SUNNY     57  27  31 VRB6      29.68F
6HR MIN TEMP:  47; 6HR MAX TEMP:  59;

LEXINGTON      SUNNY     49  32  51 N10G17    29.70F
MCCOOK         SUNNY     56  29  35 N13       29.68F
6HR MIN TEMP:  47; 6HR MAX TEMP:  57;

OGALLALA       SUNNY     57  29  34 NE8       29.68S
$$

NEZ005>010-023>029-035>040-094-270100-
NORTH CENTRAL NEBRASKA

CITY           SKY/WX    TMP DP  RH WIND       PRES   REMARKS
VALENTINE      MOSUNNY   44  27  51 N9G18     29.73S
6HR MIN TEMP:  37; 6HR MAX TEMP:  44;

AINSWORTH      PTSUNNY   40  30  68 NW12      29.72F WCI  33
BROKEN BOW     MOSUNNY   46  30  53 N15       29.70F
6HR MIN TEMP:  39; 6HR MAX TEMP:  48;

O`NEILL        CLOUDY    44  28  53 NW15      29.70F
ORD            CLOUDY    44  30  57 NW16      29.70F
6HR MIN TEMP:  39; 6HR MAX TEMP:  44;

THEDFORD       SUNNY     46  30  55 N6        29.72S
$$

NEZ041-046>049-061>064-073>077-083>087-270100-
SOUTH CENTRAL NEBRASKA

CITY           SKY/WX    TMP DP  RH WIND       PRES   REMARKS
GRAND ISLAND   PTSUNNY   43  31  62 NW18      29.70S
6HR MIN TEMP:  41; 6HR MAX TEMP:  46;

AURORA         CLOUDY    44  31  60 N18       29.69S
HASTINGS       MOSUNNY   45  30  55 NW14G24   29.70F
6HR MIN TEMP:  41; 6HR MAX TEMP:  48;

HEBRON         CLOUDY    47  32  55 NW15G22   29.67F
HOLDREGE       SUNNY     47  30  50 N13       29.70S
KEARNEY *      SUNNY     46  28  49 N16       29.71S
YORK           CLOUDY    45  32  61 N13G21    29.68S
$$

NEZ011>018-030>034-042>045-270100-
NORTHEAST NEBRASKA

CITY           SKY/WX    TMP DP  RH WIND       PRES   REMARKS
NORFOLK        CLOUDY    41  30  65 NW14G23   29.67S
6HR MIN TEMP:  37; 6HR MAX TEMP:  42;

ALBION         CLOUDY    44  31  61 NW20G25   29.69S
BLAIR          CLOUDY    41  33  73 NW13G23   29.65S
FREMONT        CLOUDY    42  32  69 NW17G24   29.68S
TEKAMAH        CLOUDY    43  31  62 N17G25    29.66S
6HR MIN TEMP:  40; 6HR MAX TEMP:  44;

WAYNE          CLOUDY    39  33  78 N16G22    29.67F WCI  30
$$

NEZ050>053-065>068-078-088>093-270100-
SOUTHEAST NEBRASKA

CITY           SKY/WX    TMP DP  RH WIND       PRES   REMARKS
LINCOLN        CLOUDY    46  33  60 N15G25    29.67F
6HR MIN TEMP:  43; 6HR MAX TEMP:  46;

OMAHA EPPLEY   CLOUDY    43  32  65 NW16      29.64F
6HR MIN TEMP:  43; 6HR MAX TEMP:  45;

BEATRICE       CLOUDY    46  35  65 N17       29.66S
FALLS CITY     CLOUDY    44  34  67 NW13G21   29.64R
6HR MIN TEMP:  44; 6HR MAX TEMP:  50;

NEBRASKA CITY  CLOUDY    43  30  60 N18G24    29.65R
PLATTSMOUTH    CLOUDY    43  30  61 NW16G22   29.65S
$$

NEZ044-045-051>053-067-270100-
OMAHA AREA

CITY           SKY/WX    TMP DP  RH WIND       PRES   REMARKS
OMAHA EPPLEY   CLOUDY    43  32  65 NW16      29.64F
6HR MIN TEMP:  43; 6HR MAX TEMP:  45;

BLAIR          CLOUDY    41  33  73 NW13G23   29.65S
FREMONT        CLOUDY    42  32  69 NW17G24   29.68S
MILLARD        CLOUDY    44  34  66 NW9G18    29.66S
OFFUTT AFB     CLOUDY    42  32  66 NW16G23   29.65S
PLATTSMOUTH    CLOUDY    43  30  61 NW16G22   29.65S
WAHOO          CLOUDY    43  32  65 NW18G26   29.67R
$$




USA.gov is the U.S. government's official web portal to all federal, state and local government web resources and services.